Location: Владивосток
(43.1151°N, 131.8856°E)
Time: 17:16:12
(UTC+10:00)

DUCHIFAT 1 - Pass Details

Date: 30 June 2022
Orbit: 580 x 596 km, 98.0° (Epoch: 17 August)

Event Time Altitude Azimuth Distance (km) Brightness Sun altitude
Rises 02:39:11 0° 32° (NNE) 2,842 ? -21.0°
Reaches altitude 10° 02:42:12 10° 56° (NE) 1,937 ? -20.8°
Maximum altitude 02:44:39 15° 92° (E) 1,627 ? -20.6°
Enters shadow 02:47:04 10° 127° (SE) 1,926 ? -20.5°
